Back to catalog

STARLINK-30499

AliveCommunicationsVLEO
NORAD 57918·PAYLOAD·🇺🇸 United States

Launched Sep 24, 2023 from Cape Canaveral Space Force Station

Loading…

Next Passes (next 24 hours)

TLE

FreshSource: CelesTrak SupGP

Epoch: Sep 14, 2026, 21:10 UTC

1 57918C 23147F   26257.88243056  .00007768  00000+0  28137-3 0  2573
2 57918  43.0020 191.7601 0001185 261.3925 198.3481 15.27572027    12

Track STARLINK-30499 in real time with AllMySat

Download on the App Store